DELTA 1 DEB, 10662

Orbit data source: Space-Track

DELTA 1 DEB, 10662 is space debris in SSO originally from a launch on Thu, 29 Jul 1976 UTC launched from the Air Force Western Test Range (AFWTR). Debris objects in space refer to the collection of defunct objects orbiting the Earth. Examples of debris include non-operational satellites, rocket bodies, and fragments generated from explosions, collisions, or faulty payload assembly.

Loading next visibility...
Identifier
10662, 1976-077Y
Orbit
SSO
Country
Flag of USUS
Related business
Manufacturer
Unknown
Mission
Spacecraft
Bus & Motor
Unknown
Mass
Unknown
Launch date (UTC)
1976-07-29 (50 years ago)
Launch vehicle
Unknown
Launch site
Air Force Western Test Range (AFWTR)
Object type
Payload
Rocket body
Debris
Shape & HBR
Unknown shape, 0.2 m
Radar Cross Section
Small (<0.1 m²)

Expand to show TLE details & history
Last TLE update: 8 hours ago

TLE from 8 hours ago
0 DELTA 1 DEB
1 10662U 76077Y   26104.88971434  .00000526  00000-0  18518-2 0  9997
2 10662 100.8056 158.1745 0245999 335.1671 208.8289 12.92165054329121
Epoch: 2026-04-14T21:21Z
TLE epoch observation values (Epoch: 2026-04-14T21:21:11.318Z)
Latitude
-2.74677°
Longitude
174.29576°
Altitude
1,462.403 km
Speed
7.054 km/s
True Right ascension
22h 30m 36s
True Declination
-2° 43' 55"
Sunlit
Object was in daylight at epoch
Visualization orbit readout
Latitude
Unknown
Longitude
Unknown
Altitude
Unknown
Speed
Unknown
Apparent Right ascension
Unknown
Apparent Declination
Unknown
Sunlit
N/A
Visualization observer readout
Local Sidereal Time
12:18:41
Azimuth
Unknown
Elevation
Unknown
Doppler factor
Unknown
Orbital elements
Apogee altitude
1,479.023 km
Perigee altitude
1,101.733 km
Semi-major axis
7,668.515 km
Eccentricity
0.0246
Inclination
100.8056°
RAAN
158.1745°
Arg. of periapsis
335.1671°
True anomaly
207.50543°
Mean anomaly
208.8289°
Eccentric anomaly
208.16364°
Mean motion
3.23204 °/min
Orbital period
111.38 mins
BSTAR
0.0018518
Loading maneuver chart data...
Computing Atmospheric mass density...
Loading historical data...
Loading historical data...
Loading historical data...
Loading historical data...
Loading historical data...
Loading historical data...
Loading historical data...

Documentation

Showing up to 5 results
|